Temperature
11 11 11 12 12 12 12 13 13 14 15 15 14 14 14 14 14 15 15 15 15 16 16 16 16 16 16 16 16 16 16 16 16 16 16 16 16 16
10 10 11 11 12 12 12 12 12 13 13 14 14 14 13 14 14 14 15 15 15 15 15 15 15 15 15 15 16 16 16 16 16 16 16 16 16 16
10 10 10 10 11 12 12 12 12 12 13 13 13 13 13 13 13 14 14 14 15 15 15 15 15 15 15 15 16 16 16 16 16 16 16 16 16 16
10 10 10 10 10 10 11 11 12 12 12 12 13 13 13 13 13 13 13 14 14 15 15 15 15 15 15 15 15 15 16 16 16 16 16 16 16 16
9 9 10 10 10 10 10 11 11 12 11 12 12 12 12 12 12 13 13 13 14 14 14 15 15 15 15 15 15 15 15 16 16 16 16 16 16 16
9 9 9 9 9 10 10 10 10 11 11 11 12 12 12 12 12 12 13 13 13 13 14 14 14 14 14 15 15 15 15 15 16 16 16 16 16 16
9 9 9 9 9 9 10 10 10 10 11 11 12 12 12 12 12 12 12 12 12 13 13 14 14 14 14 14 15 15 15 15 15 16 16 16 16 16
8 8 8 8 9 9 9 9 9 9 10 11 11 12 12 12 12 12 12 12 12 12 13 13 13 13 13 14 14 15 15 15 15 16 16 16 16 16
8 8 8 9 9 8 8 9 9 9 9 9 10 11 11 11 11 12 11 11 12 12 12 12 12 13 13 13 14 14 14 15 15 15 15 16 16 16
8 8 8 8 8 8 8 9 9 9 9 9 9 10 10 11 11 11 11 11 11 11 11 11 11 12 12 13 13 14 14 14 15 15 15 15 15 15
8 8 8 8 8 8 8 8 8 9 9 9 9 10 10 10 10 10 10 11 11 11 11 11 11 11 11 12 12 13 13 14 14 14 15 15 15 15
8 8 8 7 7 7 7 7 8 8 9 9 9 10 10 10 10 10 10 10 11 11 11 11 11 11 11 11 12 12 13 13 13 14 14 14 14 14
7 7 7 7 7 7 7 7 7 8 8 9 9 9 9 9 10 10 10 10 11 11 11 11 11 11 11 11 11 11 12 12 12 13 13 13 13 13
7 7 7 7 7 7 7 7 7 7 8 8 9 9 9 10 10 10 10 10 10 11 11 11 11 11 11 11 10 11 11 11 12 12 12 12 12 12
7 7 7 7 7 7 7 7 7 7 7 8 8 9 9 10 10 10 10 10 10 10 10 10 11 11 11 11 11 11 11 11 11 11 11 12 12 12
6 7 7 7 7 7 7 7 7 7 7 8 8 9 9 9 9 10 10 10 10 10 10 10 10 10 11 11 11 11 11 11 11 11 11 11 11 11
6 6 7 7 7 7 7 7 7 7 7 8 8 8 9 9 9 9 10 10 10 10 10 10 10 10 10 10 10 11 10 10 11 10 10 10 10 11
7 6 7 7 7 7 7 7 7 7 7 7 8 8 8 9 9 9 9 10 10 10 10 10 9 9 9 10 10 10 10 10 10 10 10 10 10 10
7 7 7 7 7 7 7 7 7 7 7 7 8 8 8 9 9 9 9 9 10 10 10 10 9 9 9 9 9 10 10 10 10 10 10 10 10 10
7 7 7 7 7 7 7 7 7 7 7 7 8 8 8 9 9 9 9 9 10 10 9 9 9 9 10 10 10 10 10 10 10 10 10 9 9 9
7 7 7 8 7 7 7 7 7 7 7 8 8 8 8 9 9 9 9 9 10 9 9 9 9 9 10 10 10 9 9 9 10 10 10 9 9 9
8 8 8 8 8 8 8 7 7 8 8 8 8 8 8 9 9 9 9 9 9 10 10 9 9 9 9 9 10 9 9 9 9 9 9 9 9 9
8 8 8 8 8 8 8 8 8 8 8 8 8 8 8 9 9 9 9 10 10 10 9 9 9 9 9 9 9 9 9 9 9 8 8 9 9 10
Wind_Speed
13 13 12 11 11 10 10 10 11 11 10 6 5 3 3 5 5 7 9 11 15 19 22 23 24 25 27 29 29 29 29 29 29 29 29 28 28 28
11 12 12 12 10 10 11 11 11 11 11 8 5 6 5 5 4 6 6 8 11 15 17 19 20 22 23 25 26 27 27 27 27 27 27 27 27 26
13 13 14 14 12 11 11 11 11 11 12 10 7 6 6 6 5 4 5 6 7 11 14 15 16 19 21 22 23 24 25 25 25 25 25 25 25 24
14 14 14 13 14 13 12 13 12 11 12 12 8 6 6 5 5 4 4 4 5 8 11 12 13 14 17 18 20 21 21 22 22 22 23 23 23 23
14 14 15 14 14 13 13 13 12 12 12 12 11 7 6 5 4 4 3 2 3 7 9 10 11 12 13 15 16 17 18 18 19 20 20 20 20 20
14 15 15 15 15 14 13 14 13 13 12 12 11 9 7 5 5 4 4 3 3 5 6 8 10 10 10 11 13 14 15 15 16 17 17 18 18 18
15 15 15 14 13 12 12 12 12 12 12 12 12 10 8 6 5 4 4 5 3 3 6 6 7 7 7 9 10 11 13 14 14 14 15 15 15 15
15 14 14 14 15 15 16 16 15 14 14 12 12 11 10 8 6 5 4 5 4 4 5 4 5 5 5 6 9 11 12 13 13 13 13 14 14 14
15 14 13 14 13 15 16 20 20 19 17 15 15 13 11 10 8 8 7 6 4 6 6 4 4 4 4 7 10 9 10 11 12 13 13 13 13 13
16 16 15 15 15 14 15 15 16 17 18 17 16 14 12 8 8 8 6 5 3 5 5 4 4 4 4 6 8 8 9 10 11 12 13 13 13 13
15 15 15 15 13 10 14 15 15 14 13 13 11 9 5 4 6 7 7 7 5 4 4 4 4 4 4 4 7 8 9 10 11 13 14 15 17 15
12 12 13 14 11 9 14 15 15 14 13 13 13 12 12 11 11 11 10 9 7 5 5 5 6 5 4 3 4 6 8 9 11 13 15 17 17 12
11 10 9 9 12 12 13 14 13 11 11 12 12 12 13 12 13 13 11 10 9 5 8 7 6 6 5 5 4 5 6 7 8 9 12 12 9 6
11 10 7 4 8 11 12 12 10 9 10 10 10 11 12 12 12 12 12 10 8 6 10 10 6 7 7 6 5 6 5 7 7 7 9 9 7 8
10 9 8 7 8 10 13 12 11 11 11 11 11 12 11 11 10 10 11 10 9 8 11 10 8 8 8 7 7 8 6 6 7 8 8 8 8 9
10 9 11 11 11 9 8 11 12 11 11 11 11 11 10 10 10 10 10 9 8 7 8 10 10 10 7 7 9 10 9 8 9 9 8 8 9 10
8 8 8 7 8 8 9 9 10 10 11 11 10 10 10 10 10 10 10 9 9 9 9 7 6 6 5 7 9 9 10 9 10 10 9 8 7 8
8 8 8 7 8 8 8 9 9 10 10 10 10 10 10 10 11 10 11 11 10 10 10 9 8 6 4 2 3 9 9 9 10 11 10 9 9 8
8 8 8 7 7 7 7 8 9 9 9 9 9 9 10 10 11 11 11 11 11 11 11 11 11 10 10 8 5 5 9 10 11 10 10 9 9 9
8 8 7 7 6 6 6 7 7 7 8 8 9 9 10 10 11 11 11 12 11 11 11 11 12 11 11 10 7 6 8 11 11 11 10 8 7 10
7 7 7 6 5 5 5 5 6 7 7 8 9 9 9 10 10 11 11 12 11 11 12 12 11 10 6 7 8 7 7 7 8 9 11 10 10 10
6 6 6 6 5 5 5 5 6 6 8 8 8 9 9 9 10 11 10 11 11 10 11 10 12 11 8 9 10 11 10 8 7 11 9 5 7 10
6 6 5 5 5 5 6 6 7 7 7 8 8 9 9 9 9 10 10 10 10 11 11 11 10 9 9 9 10 10 14 12 9 9 6 7 7 9
Wind_Direction
262 256 254 261 259 258 259 261 268 275 274 268 262 272 288 279 274 250 239 214 210 208 206 206 205 206 207 210 213 215 215 215 216 216 216 218 219 222
262 267 266 264 261 258 256 256 256 262 270 275 275 281 298 296 280 268 242 207 202 201 200 200 201 204 205 206 209 211 211 212 213 214 215 216 218 220
263 259 256 260 262 261 255 253 253 253 261 267 262 270 273 281 275 265 233 209 198 190 189 190 194 199 201 202 205 206 207 209 210 211 213 214 216 218
264 263 261 257 253 255 257 253 253 254 256 264 264 263 260 268 267 256 244 207 188 174 177 178 182 190 194 196 200 201 202 203 205 207 209 212 213 215
265 264 262 260 258 255 253 254 251 247 245 253 255 251 254 254 258 244 218 189 168 155 157 161 167 176 183 188 191 192 195 198 200 203 205 206 208 209
265 263 261 259 257 256 253 251 253 253 247 247 251 245 235 233 235 229 204 175 163 156 140 138 140 145 157 169 174 178 183 189 193 196 197 199 201 203
267 263 260 260 267 266 264 258 251 247 245 242 242 241 234 221 226 220 207 166 150 153 141 141 145 148 152 158 163 168 172 175 179 183 186 188 191 194
272 267 264 255 246 240 249 260 265 257 252 249 244 239 234 227 221 221 203 185 173 167 150 141 151 146 147 148 143 155 164 168 172 175 177 179 181 183
270 267 265 262 247 247 235 231 241 246 252 257 255 250 238 222 213 212 206 205 184 164 157 140 141 131 120 106 123 141 155 163 166 168 170 171 173 174
265 263 262 264 261 257 255 246 240 235 230 234 244 249 249 237 216 215 211 188 158 163 163 146 150 135 123 112 116 131 147 157 160 161 163 163 161 160
267 264 263 262 256 245 254 255 252 246 233 229 239 248 266 219 210 210 201 190 183 176 174 150 142 128 128 124 112 119 134 146 151 154 154 153 148 141
275 268 258 254 262 239 248 250 249 244 240 220 216 222 226 211 201 214 208 202 188 177 169 155 151 147 135 133 138 139 131 133 139 146 151 154 156 149
281 276 270 232 232 235 244 252 255 259 247 235 226 221 219 214 208 209 210 209 198 188 167 158 161 165 146 143 152 155 150 149 144 142 148 157 166 168
278 279 281 253 232 231 235 244 250 252 245 239 228 224 219 213 207 205 202 205 207 188 167 166 165 168 155 152 152 157 157 157 156 151 148 146 133 119
275 288 291 276 250 238 232 232 231 232 231 230 228 225 221 214 205 198 195 194 193 184 173 177 173 168 169 166 157 161 162 164 166 159 157 161 158 154
268 263 242 241 244 253 233 218 225 227 227 227 226 223 216 207 202 196 189 182 178 173 177 182 180 174 176 166 160 165 167 165 170 167 160 159 164 166
303 281 265 248 236 229 227 224 219 218 222 227 224 219 211 207 203 194 188 185 186 177 168 168 167 161 162 165 166 168 166 164 165 163 162 159 162 165
279 268 262 253 243 232 226 222 219 218 219 220 220 215 208 204 201 195 189 191 189 181 172 166 158 146 135 115 157 168 167 164 161 166 172 165 164 166
253 260 260 256 251 241 229 223 221 216 215 216 214 212 207 203 197 193 192 194 191 182 174 171 174 175 176 174 170 190 169 160 160 169 177 173 167 162
246 257 262 257 249 241 230 224 218 209 207 211 211 209 205 199 196 194 193 193 189 179 174 177 184 190 193 175 160 165 173 164 166 168 168 158 128 112
254 254 258 258 249 234 224 219 212 207 210 211 207 205 201 198 197 197 194 187 188 182 180 184 184 175 162 138 142 148 159 156 158 164 162 158 156 162
264 260 257 253 245 232 220 216 214 207 207 211 203 198 195 197 199 197 192 187 189 188 182 171 164 167 172 173 164 155 152 149 119 110 101 122 172 180
266 262 259 251 239 227 221 218 213 210 208 206 200 195 194 196 199 197 192 188 186 182 172 165 164 172 177 174 162 157 155 154 155 156 138 49 71 105
Height
1497 1496 1496 1496 1496 1496 1496 1496 1496 1493 1491 1490 1490 1489 1489 1489 1489 1489 1491 1493 1496 1499 1504 1508 1513 1517 1522 1526 1531 1536 1541 1546 1550 1555 1559 1562 1566 1569
1490 1490 1490 1490 1490 1490 1490 1490 1490 1489 1487 1487 1486 1486 1485 1485 1485 1485 1486 1488 1491 1494 1498 1502 1506 1510 1515 1520 1524 1529 1534 1539 1544 1548 1552 1555 1559 1563
1485 1484 1484 1483 1484 1484 1484 1484 1484 1484 1483 1482 1482 1481 1481 1481 1481 1480 1482 1483 1486 1489 1493 1497 1501 1505 1509 1513 1518 1523 1528 1533 1537 1541 1545 1549 1552 1556
1479 1478 1478 1478 1477 1477 1478 1478 1478 1478 1479 1478 1478 1477 1477 1477 1477 1477 1478 1479 1482 1484 1488 1492 1496 1500 1504 1507 1512 1517 1522 1526 1530 1535 1539 1543 1546 1550
1472 1472 1471 1471 1471 1471 1471 1472 1473 1473 1473 1473 1473 1473 1473 1473 1473 1473 1474 1475 1477 1480 1483 1487 1491 1494 1498 1503 1507 1511 1516 1521 1525 1529 1532 1536 1540 1543
1465 1465 1464 1464 1464 1464 1465 1465 1466 1467 1467 1468 1468 1468 1468 1469 1469 1470 1471 1472 1473 1476 1479 1482 1486 1490 1494 1498 1502 1506 1511 1515 1519 1523 1526 1530 1534 1537
1458 1457 1457 1457 1457 1458 1459 1459 1460 1461 1461 1462 1463 1463 1464 1464 1466 1466 1467 1468 1471 1472 1475 1479 1483 1486 1490 1493 1498 1501 1506 1510 1514 1517 1521 1525 1529 1532
1452 1451 1450 1450 1449 1449 1450 1451 1453 1454 1455 1456 1457 1458 1459 1460 1462 1463 1464 1465 1467 1470 1473 1476 1480 1483 1487 1490 1493 1497 1501 1505 1509 1513 1516 1520 1524 1527
1445 1444 1444 1444 1444 1443 1443 1443 1444 1446 1448 1450 1452 1453 1454 1456 1457 1459 1460 1462 1464 1466 1470 1473 1476 1480 1483 1487 1491 1494 1498 1501 1505 1509 1512 1516 1520 1523
1438 1437 1436 1436 1437 1437 1437 1438 1438 1439 1440 1443 1445 1447 1450 1451 1453 1455 1457 1459 1461 1464 1467 1470 1473 1477 1480 1484 1488 1491 1495 1498 1502 1505 1509 1512 1516 1519
1432 1430 1429 1429 1429 1429 1430 1431 1432 1433 1435 1437 1439 1441 1443 1446 1448 1451 1453 1455 1457 1460 1463 1467 1470 1474 1478 1481 1485 1489 1492 1495 1499 1502 1505 1509 1512 1516
1426 1424 1422 1422 1422 1422 1423 1424 1425 1427 1429 1431 1432 1435 1437 1440 1442 1445 1448 1451 1453 1456 1459 1463 1468 1471 1476 1479 1483 1486 1490 1493 1496 1499 1503 1506 1509 1512
1420 1418 1417 1416 1415 1415 1416 1418 1419 1421 1423 1425 1427 1429 1432 1434 1437 1440 1443 1446 1449 1452 1455 1459 1464 1468 1472 1476 1480 1484 1487 1490 1493 1497 1500 1503 1507 1510
1414 1413 1412 1410 1409 1409 1410 1411 1413 1415 1418 1419 1421 1423 1426 1429 1432 1435 1438 1442 1445 1448 1451 1455 1459 1464 1468 1473 1476 1481 1485 1488 1492 1495 1498 1501 1505 1507
1409 1407 1405 1404 1404 1404 1404 1405 1407 1409 1412 1414 1416 1418 1421 1424 1428 1431 1434 1437 1441 1444 1448 1452 1456 1460 1466 1469 1473 1477 1481 1485 1489 1493 1496 1500 1503 1506
1404 1401 1400 1399 1398 1398 1399 1400 1401 1404 1406 1408 1411 1414 1417 1419 1422 1426 1429 1433 1437 1440 1444 1449 1453 1457 1462 1466 1470 1474 1478 1482 1486 1490 1494 1498 1501 1505
1399 1397 1396 1395 1394 1394 1394 1395 1396 1398 1401 1403 1406 1409 1411 1415 1418 1422 1426 1430 1433 1436 1440 1445 1449 1454 1459 1463 1467 1471 1475 1479 1483 1487 1492 1496 1499 1503
1395 1393 1392 1391 1390 1390 1390 1391 1392 1393 1395 1398 1401 1404 1407 1410 1414 1418 1422 1426 1430 1433 1437 1441 1446 1451 1456 1460 1464 1468 1472 1476 1480 1485 1490 1494 1497 1501
1391 1390 1389 1388 1387 1386 1386 1387 1388 1389 1391 1394 1397 1400 1403 1406 1410 1414 1418 1422 1426 1430 1433 1437 1442 1446 1451 1455 1460 1464 1468 1472 1477 1482 1487 1492 1496 1499
1388 1387 1386 1385 1384 1383 1383 1383 1384 1386 1388 1390 1393 1396 1399 1403 1406 1410 1414 1418 1422 1426 1429 1433 1438 1442 1447 1451 1455 1460 1465 1469 1474 1478 1484 1489 1493 1496
1385 1384 1383 1382 1381 1381 1381 1381 1382 1383 1385 1387 1390 1393 1396 1400 1403 1407 1411 1415 1418 1422 1426 1430 1434 1439 1444 1448 1452 1456 1462 1467 1471 1476 1481 1485 1489 1493
1382 1381 1380 1379 1379 1378 1379 1379 1380 1381 1383 1385 1387 1390 1394 1397 1401 1404 1408 1411 1415 1419 1423 1427 1431 1436 1440 1444 1448 1453 1458 1463 1468 1473 1479 1483 1486 1490
1379 1378 1377 1377 1377 1376 1377 1377 1378 1379 1381 1383 1386 1388 1391 1395 1398 1402 1405 1409 1412 1416 1420 1424 1428 1432 1437 1441 1446 1450 1454 1459 1464 1470 1475 1480 1484 1489